Location: Donzy-le-Pr�
(47.3659°N, 3.1107°E)
Time: 05:39:28
(UTC+00:00)

Cosmos 1354 Rocket - Pass Details

Date: 03 March 2021
Orbit: 765 x 782 km, 74.0° (Epoch: 22 April)

Event Time Altitude Azimuth Distance (km) Brightness Sun altitude
Rises 18:18:25 0° 341° (NNW) 3,252 7.5 -8.0°
Reaches altitude 10° 18:20:54 10° 347° (NNW) 2,319 6.7 -8.4°
Maximum altitude 18:25:58 47° 62° (ENE) 1,008 4.3 -9.3°
Drops below altitude 10° 18:31:00 10° 136° (SE) 2,298 6.1 -10.1°
Sets 18:33:27 0° 142° (SE) 3,220 6.8 -10.6°
Enters shadow 18:33:35 - 142° (SE) 3,270 6.9 -10.6°
